Stündliche Wetter Barmuty

Heute, 27 Oktober, Dienstag

Zeit Temperatur Niederschläge Wind Luftdruck Luftfeuchtigkeit
00:00 +10°C° 0 mm 5 m/S 745 mmHg 88%
01:00 +10°C° 0 mm 5 m/S 745 mmHg 90%
02:00 +10°C° 0 mm 4 m/S 745 mmHg 93%
03:00 +10°C° 0 mm 4 m/S 745 mmHg 93%
04:00 +10°C° 0 mm 4 m/S 745 mmHg 94%
05:00 +10°C° 0 mm 4 m/S 745 mmHg 95%
06:00 +8°C° 0 mm 4 m/S 745 mmHg 94%
07:00 +8°C° 0 mm 4 m/S 746 mmHg 94%
08:00 +8°C° 0 mm 4 m/S 746 mmHg 94%
09:00 +11°C° 0 mm 4 m/S 746 mmHg 89%
10:00 +12°C° 0 mm 4 m/S 746 mmHg 83%
11:00 +13°C° 0 mm 4 m/S 746 mmHg 77%
12:00 +14°C° 0 mm 4 m/S 746 mmHg 75%
13:00 +15°C° 0 mm 4 m/S 747 mmHg 73%
14:00 +15°C° 0 mm 4 m/S 747 mmHg 70%
15:00 +14°C° 0 mm 4 m/S 747 mmHg 74%
16:00 +14°C° 0 mm 3 m/S 746 mmHg 78%
17:00 +13°C° 0 mm 3 m/S 746 mmHg 82%
18:00 +12°C° 0 mm 3 m/S 747 mmHg 84%
19:00 +12°C° 0 mm 3 m/S 747 mmHg 86%
20:00 +11°C° 0 mm 3 m/S 747 mmHg 88%
21:00 +11°C° 0 mm 3 m/S 747 mmHg 89%
22:00 +11°C° 0 mm 3 m/S 747 mmHg 90%
23:00 +11°C° 0 mm 3 m/S 747 mmHg 91%

Morgen, 28 Oktober, Mittwoch

Zeit Temperatur Niederschläge Wind Luftdruck Luftfeuchtigkeit
00:00 +10°C° 0 mm 3 m/S 747 mmHg 92%
01:00 +10°C° 0 mm 3 m/S 747 mmHg 92%
02:00 +10°C° 0 mm 3 m/S 748 mmHg 93%
03:00 +10°C° 0 mm 3 m/S 748 mmHg 93%
04:00 +9°C° 0 mm 2 m/S 747 mmHg 93%
05:00 +9°C° 0 mm 2 m/S 747 mmHg 93%
06:00 +9°C° 0 mm 2 m/S 748 mmHg 93%
07:00 +9°C° 0 mm 2 m/S 748 mmHg 93%
08:00 +9°C° 0 mm 2 m/S 748 mmHg 94%
09:00 +10°C° 0 mm 2 m/S 748 mmHg 87%
10:00 +12°C° 0 mm 3 m/S 748 mmHg 81%
11:00 +13°C° 0 mm 3 m/S 749 mmHg 75%
12:00 +14°C° 0 mm 3 m/S 748 mmHg 71%
13:00 +16°C° 0 mm 3 m/S 748 mmHg 68%
14:00 +17°C° 0 mm 3 m/S 748 mmHg 65%
15:00 +16°C° 0 mm 3 m/S 748 mmHg 70%
16:00 +15°C° 0 mm 2 m/S 748 mmHg 75%
17:00 +14°C° 0 mm 2 m/S 748 mmHg 80%
18:00 +13°C° 0 mm 2 m/S 748 mmHg 83%
19:00 +13°C° 0 mm 2 m/S 748 mmHg 86%
20:00 +12°C° 0 mm 2 m/S 748 mmHg 89%
21:00 +12°C° 0 mm 2 m/S 748 mmHg 90%
22:00 +12°C° 0 mm 2 m/S 748 mmHg 91%
23:00 +10°C° 0 mm 2 m/S 748 mmHg 92%

übermorgen, 29 Oktober, Donnerstag

Zeit Temperatur Niederschläge Wind Luftdruck Luftfeuchtigkeit
00:00 +10°C° 0 mm 2 m/S 748 mmHg 93%
01:00 +10°C° 0 mm 2 m/S 748 mmHg 93%
02:00 +10°C° 0 mm 2 m/S 748 mmHg 93%
03:00 +9°C° 0 mm 2 m/S 748 mmHg 94%
04:00 +9°C° 0 mm 2 m/S 748 mmHg 94%
05:00 +9°C° 0 mm 2 m/S 747 mmHg 95%
06:00 +9°C° 0 mm 2 m/S 748 mmHg 94%
07:00 +9°C° 0 mm 2 m/S 748 mmHg 93%
08:00 +9°C° 0 mm 2 m/S 748 mmHg 92%
09:00 +10°C° 0 mm 2 m/S 748 mmHg 85%
10:00 +12°C° 0 mm 2 m/S 748 mmHg 77%
11:00 +12°C° 0 mm 3 m/S 748 mmHg 69%
12:00 +13°C° 0 mm 3 m/S 748 mmHg 66%
13:00 +13°C° 0 mm 3 m/S 748 mmHg 63%
14:00 +14°C° 0 mm 3 m/S 747 mmHg 60%
15:00 +13°C° 0 mm 3 m/S 747 mmHg 64%
16:00 +12°C° 0 mm 3 m/S 747 mmHg 68%
17:00 +12°C° 0 mm 2 m/S 747 mmHg 73%
18:00 +10°C° 0 mm 2 m/S 747 mmHg 75%
19:00 +10°C° 0 mm 2 m/S 747 mmHg 77%
20:00 +10°C° 0 mm 2 m/S 747 mmHg 79%
21:00 +10°C° 0 mm 2 m/S 747 mmHg 79%
22:00 +10°C° 0 mm 2 m/S 747 mmHg 80%
23:00 +10°C° 0 mm 2 m/S 747 mmHg 81%

30 Oktober, Freitag

Zeit Temperatur Niederschläge Wind Luftdruck Luftfeuchtigkeit
00:00 +10°C° 0.1 mm 2 m/S 747 mmHg 83%
01:00 +9°C° 0.1 mm 3 m/S 747 mmHg 85%
02:00 +9°C° 0.1 mm 3 m/S 747 mmHg 88%
03:00 +9°C° 0.1 mm 3 m/S 747 mmHg 88%
04:00 +9°C° 0.1 mm 3 m/S 747 mmHg 88%
05:00 +7°C° 0.1 mm 4 m/S 748 mmHg 88%
06:00 +7°C° 0 mm 4 m/S 748 mmHg 88%
07:00 +6°C° 0 mm 4 m/S 748 mmHg 88%
08:00 +6°C° 0 mm 4 m/S 749 mmHg 88%
09:00 +7°C° 0 mm 4 m/S 749 mmHg 84%
10:00 +7°C° 0 mm 4 m/S 749 mmHg 79%
11:00 +8°C° 0 mm 4 m/S 749 mmHg 74%
12:00 +8°C° 0 mm 5 m/S 749 mmHg 74%
13:00 +8°C° 0 mm 5 m/S 749 mmHg 74%
14:00 +8°C° 0 mm 5 m/S 750 mmHg 74%
15:00 +8°C° 0 mm 4 m/S 750 mmHg 76%
16:00 +7°C° 0 mm 4 m/S 750 mmHg 78%
17:00 +8°C° 0 mm 3 m/S 750 mmHg 79%
18:00 +8°C° 0 mm 3 m/S 750 mmHg 79%
19:00 +7°C° 0 mm 3 m/S 750 mmHg 79%
20:00 +7°C° 0 mm 3 m/S 750 mmHg 79%
21:00 +7°C° 0 mm 3 m/S 751 mmHg 79%
22:00 +7°C° 0 mm 2 m/S 751 mmHg 79%
23:00 +7°C° 0 mm 2 m/S 751 mmHg 78%

31 Oktober, Samstag

Zeit Temperatur Niederschläge Wind Luftdruck Luftfeuchtigkeit
00:00 +7°C° 0 mm 2 m/S 751 mmHg 78%
01:00 +7°C° 0 mm 2 m/S 751 mmHg 77%
02:00 +7°C° 0 mm 2 m/S 751 mmHg 76%
03:00 +8°C° 0 mm 1 m/S 751 mmHg 76%
04:00 +8°C° 0 mm 1 m/S 751 mmHg 75%
05:00 +9°C° 0 mm 1 m/S 752 mmHg 75%
06:00 +8°C° 0 mm 2 m/S 752 mmHg 75%
07:00 +8°C° 0 mm 2 m/S 752 mmHg 76%
08:00 +8°C° 0 mm 3 m/S 753 mmHg 77%
09:00 +8°C° 0 mm 3 m/S 753 mmHg 75%
10:00 +9°C° 0 mm 3 m/S 753 mmHg 73%
11:00 +8°C° 0 mm 4 m/S 754 mmHg 72%
12:00 +10°C° 0 mm 4 m/S 754 mmHg 68%
13:00 +10°C° 0 mm 4 m/S 754 mmHg 65%
14:00 +11°C° 0 mm 4 m/S 754 mmHg 62%
15:00 +10°C° 0 mm 4 m/S 754 mmHg 65%
16:00 +8°C° 0 mm 4 m/S 755 mmHg 69%
17:00 +9°C° 0 mm 3 m/S 755 mmHg 72%
18:00 +8°C° 0 mm 3 m/S 755 mmHg 76%
19:00 +7°C° 0 mm 3 m/S 756 mmHg 80%
20:00 +7°C° 0 mm 2 m/S 756 mmHg 84%
21:00 +6°C° 0 mm 2 m/S 756 mmHg 86%
22:00 +6°C° 0 mm 2 m/S 756 mmHg 88%
23:00 +5°C° 0 mm 2 m/S 757 mmHg 91%

1 November, Sonntag

Zeit Temperatur Niederschläge Wind Luftdruck Luftfeuchtigkeit
00:00 +5°C° 0 mm 2 m/S 757 mmHg 91%
01:00 +5°C° 0 mm 2 m/S 757 mmHg 92%
02:00 +5°C° 0 mm 2 m/S 757 mmHg 92%
03:00 +5°C° 0 mm 2 m/S 757 mmHg 93%
04:00 +4°C° 0 mm 2 m/S 757 mmHg 94%
05:00 +4°C° 0 mm 2 m/S 757 mmHg 95%
06:00 +4°C° 0 mm 2 m/S 757 mmHg 95%
07:00 +4°C° 0 mm 2 m/S 757 mmHg 95%
08:00 +4°C° 0 mm 2 m/S 757 mmHg 95%
09:00 +6°C° 0 mm 2 m/S 757 mmHg 89%
10:00 +7°C° 0 mm 2 m/S 757 mmHg 83%
11:00 +8°C° 0 mm 2 m/S 757 mmHg 77%
12:00 +9°C° 0 mm 2 m/S 757 mmHg 73%
13:00 +10°C° 0 mm 2 m/S 757 mmHg 69%
14:00 +12°C° 0 mm 2 m/S 757 mmHg 65%
15:00 +10°C° 0 mm 2 m/S 757 mmHg 70%
16:00 +9°C° 0 mm 2 m/S 757 mmHg 75%
17:00 +8°C° 0 mm 2 m/S 757 mmHg 80%
18:00 +7°C° 0 mm 2 m/S 757 mmHg 83%
19:00 +7°C° 0 mm 2 m/S 757 mmHg 86%
20:00 +6°C° 0 mm 2 m/S 757 mmHg 89%
21:00 +6°C° 0 mm 2 m/S 757 mmHg 89%
22:00 +5°C° 0 mm 2 m/S 757 mmHg 90%
23:00 +5°C° 0 mm 2 m/S 757 mmHg 91%
Mehr zeigen